Cecil Field, FL

1:24 PM EDT on May 28, 2017 (GMT -0400)
Cecil

Weather History for KVQQ - December, 2012

Change the Weather History Date:

Thursday, December 6, 2012

  Actual Average (KNIP) Record (KNIP)
Temperature  
Mean Temperature 63 °F -  
Max Temperature 71 °F 66 °F 82 °F (1998)
Min Temperature 55 °F 50 °F 34 °F (2010)
Degree Days  
Heating Degree Days 2    
Growing Degree Days 13 (Base 50)    
Moisture  
Dew Point 60 °F    
Average Humidity 95    
Maximum Humidity 100    
Minimum Humidity 69    
Precipitation  
Precipitation 0.00 in - - ()
Sea Level Pressure  
Sea Level Pressure 30.07 in    
Wind  
Wind Speed 3 mph (NE)    
Max Wind Speed 14 mph    
Max Gust Speed -    
Visibility 8 miles    
Events Fog    
Averages and records for this station are not official NWS values.
T = Trace of Precipitation, MM = Missing Value Source: NWS Daily Summary

Daily Weather History Graph

Daily Weather History Graph

Search for Another Location

Airport or City:

Trip Planner

Search our weather history database for the weather conditions in past years. The results will help you decide how hot, cold, wet, or windy it might be!

Date:

Astronomy

Dec. 06, 2012 Rise Set
Actual Time 7:10 AM EST 5:27 PM EST
Civil Twilight 6:44 AM EST 5:53 PM EST
Nautical Twilight 6:14 AM EST 6:23 PM EST
Astronomical Twilight 5:45 AM EST 6:52 PM EST
Moon No Moon Rise 12:26 PM EST (12/6)
Length of Visible Light 11h 09m
Length of Day
10h 16m
Waning Gibbous, 49% of the Moon is Illuminated
Dec 6
Waning Gibbous
Dec 13
New
Dec 20
First Quarter
Dec 28
Full
Jan 4
Last Quarter

Hourly Weather History & Observations

Time (EST) Temp. Dew Point Humidity Pressure Visibility Wind Dir Wind Speed Gust Speed Precip Events Conditions
12:15 AM 62.6 °F 60.8 °F 94% 30.11 in 10.0 mi Calm Calm - N/A   Mostly Cloudy
12:35 AM 60.8 °F 59.0 °F 94% 30.10 in 10.0 mi Calm Calm - N/A   Partly Cloudy
12:55 AM 59.0 °F 59.0 °F 100% 30.10 in 10.0 mi Calm Calm - N/A   Clear
1:15 AM 59.0 °F 59.0 °F 100% 30.09 in 10.0 mi Calm Calm - N/A   Clear
1:35 AM 59.0 °F 59.0 °F 100% 30.09 in 10.0 mi Calm Calm - N/A   Clear
1:55 AM 59.0 °F 59.0 °F 100% 30.09 in 10.0 mi Calm Calm - N/A   Clear
2:15 AM 57.2 °F 57.2 °F 100% 30.09 in 10.0 mi Calm Calm - N/A   Clear
2:35 AM 59.0 °F 59.0 °F 100% 30.09 in 10.0 mi Calm Calm - N/A   Clear
2:55 AM 59.0 °F 59.0 °F 100% 30.09 in 10.0 mi Calm Calm - N/A   Scattered Clouds
3:15 AM 59.0 °F 59.0 °F 100% 30.08 in 10.0 mi Calm Calm - N/A   Partly Cloudy
3:35 AM 59.0 °F 59.0 °F 100% 30.07 in 10.0 mi Calm Calm - N/A   Partly Cloudy
3:55 AM 57.2 °F 57.2 °F 100% 30.07 in 9.0 mi Calm Calm - N/A   Mostly Cloudy
4:15 AM 59.0 °F 59.0 °F 100% 30.06 in 10.0 mi Calm Calm - N/A   Mostly Cloudy
4:35 AM 59.0 °F 59.0 °F 100% 30.06 in 10.0 mi Calm Calm - N/A   Mostly Cloudy
4:55 AM 57.2 °F 57.2 °F 100% 30.06 in 10.0 mi Calm Calm - N/A   Mostly Cloudy
5:15 AM 57.2 °F 57.2 °F 100% 30.05 in 5.0 mi Calm Calm - N/A   Partly Cloudy
5:35 AM 57.2 °F 57.2 °F 100% 30.06 in 1.5 mi Calm Calm - N/A   Clear
5:55 AM 57.2 °F 57.2 °F 100% 30.06 in 0.2 mi Calm Calm - N/A Fog Fog
6:15 AM 55.4 °F 55.4 °F 100% 30.07 in 0.2 mi Calm Calm - N/A Fog Fog
6:35 AM 55.4 °F 55.4 °F 100% 30.07 in 9.0 mi Calm Calm - N/A   Mostly Cloudy
6:50 AM 57.2 °F 57.2 °F 100% 30.07 in 10.0 mi Calm Calm - N/A   Mostly Cloudy
7:50 AM 59.0 °F 59.0 °F 100% 30.07 in 10.0 mi Calm Calm - N/A   Scattered Clouds
8:50 AM 64.4 °F 62.6 °F 94% 30.09 in 10.0 mi Calm Calm - N/A   Mostly Cloudy
9:50 AM 66.2 °F 62.6 °F 88% 30.11 in 10.0 mi East 6.9 mph - N/A   Mostly Cloudy
10:55 AM 69.8 °F 62.6 °F 78% 30.10 in 10.0 mi ENE 8.1 mph - N/A   Scattered Clouds
11:50 AM 69.8 °F 62.6 °F 78% 30.09 in 10.0 mi NE 9.2 mph - N/A   Mostly Cloudy
12:50 PM 71.6 °F 60.8 °F 69% 30.06 in 10.0 mi ENE 12.7 mph - N/A   Mostly Cloudy
1:50 PM 71.6 °F 60.8 °F 69% 30.03 in 10.0 mi East 13.8 mph - N/A   Mostly Cloudy
2:50 PM 68.0 °F 59.0 °F 73% 30.03 in 10.0 mi NE 4.6 mph - N/A   Mostly Cloudy
4:50 PM 66.2 °F 62.6 °F 88% 30.04 in 10.0 mi NNE 9.2 mph - N/A   Mostly Cloudy
5:50 PM 64.4 °F 62.6 °F 94% 30.04 in 10.0 mi NNE 9.2 mph - N/A   Clear
6:50 PM 62.6 °F 60.8 °F 94% 30.05 in 10.0 mi NNE 9.2 mph - N/A   Mostly Cloudy
7:50 PM 62.6 °F 60.8 °F 94% 30.05 in 10.0 mi NNE 11.5 mph - N/A   Overcast
8:15 PM 62.6 °F 60.8 °F 94% 30.05 in 7.0 mi NNE 10.4 mph - N/A   Overcast
8:35 PM 62.6 °F 62.6 °F 100% 30.05 in 7.0 mi NNE 9.2 mph - N/A   Overcast
8:55 PM 62.6 °F 62.6 °F 100% 30.06 in 7.0 mi NNE 9.2 mph - N/A   Overcast
9:35 PM 62.6 °F 62.6 °F 100% 30.05 in 6.0 mi NNE 8.1 mph - N/A   Overcast
9:55 PM 62.6 °F 60.8 °F 94% 30.05 in 7.0 mi NNE 6.9 mph - N/A   Overcast
10:15 PM 62.6 °F 60.8 °F 94% 30.05 in 7.0 mi NNE 8.1 mph - N/A   Overcast
10:35 PM 62.6 °F 60.8 °F 94% 30.05 in 5.0 mi NNE 8.1 mph - N/A   Overcast
10:55 PM 62.6 °F 60.8 °F 94% 30.05 in 5.0 mi NNE 8.1 mph - N/A   Overcast
11:15 PM 62.6 °F 60.8 °F 94% 30.05 in 5.0 mi North 11.5 mph - N/A   Overcast
11:35 PM 60.8 °F 60.8 °F 100% 30.05 in 4.0 mi North 8.1 mph - N/A   Overcast
11:55 PM 60.8 °F 60.8 °F 100% 30.04 in 3.0 mi NNE 6.9 mph - N/A   Overcast